Home > Weather > Varel > Past weeks

Flag for Germany Past Weather in Varel, Lower Saxony, Germany — Yesterday and Last 2 Weeks

Now
63 °F

Partly sunny.


Feels Like: 63 °F
Forecast: 54 / 63 °F
Wind: 16 mph from Southwest

Location: Wittmundhaven

Current Time: Jul 1, 2016 at 12:03:10 PM

Latest Report: Jul 1, 2016 at 11:20 AM


Visibility: 5 mi

Pressure: 29.80 "Hg

Humidity: 88%

Dew Point: 59 °F

Location of VarelLocation

Past Weather in Varel — Graph

°F

Varel Temperature Yesterday

Maximum temperature yesterday: 68 °F (at 2:20 PM)
Minimum temperature yesterday: 57 °F (at 12:20 AM)
Average temperature yesterday: 61 °F

High & Low Weather Summary for the Past Weeks

 TemperatureHumidityPressure
High79 °F (Jun 23, 11:20 AM)100% (Jun 17, 3:20 AM)30.21 "Hg (Jun 17, 3:20 AM)
Low50 °F (Jun 28, 6:20 AM)49% (Jun 28, 4:20 PM)29.56 "Hg (Jun 17, 4:20 AM)
Average61 °F82%29.95 "Hg
* Reported Jun 16 10:20 AM — Jul 1 10:20 AM, Varel, Weather by CustomWeather, © 2016

Note: Actual official high and low records may vary slightly from our data, if they occured in-between our weather recording intervals... More about our weather records

Advertising

Varel Weather History for the Previous 24 Hours

Scroll right to see more
 ConditionsComfort  
Time TempWeatherWind HumidityBarometerVisibility
10:20 AM
Fri, Jul 1
63 °FDrizzle. Partly sunny.15 mph88%29.80 "Hg5 mi
9:20 AM63 °FDrizzle. Fog.14 mph88%29.80 "Hg3 mi
8:20 AM63 °FPartly sunny.16 mph83%29.80 "HgN/A
7:20 AM61 °FDrizzle. Partly sunny.13 mph88%29.80 "HgN/A
6:20 AM61 °FPartly sunny.12 mph88%29.80 "HgN/A
5:20 AM59 °FPartly cloudy.10 mph94%29.80 "Hg6 mi
4:20 AM59 °FPassing clouds.8 mph94%29.80 "Hg6 mi
3:20 AM59 °FLight rain. Passing clouds.7 mph94%29.80 "HgN/A
2:20 AM59 °FPartly cloudy.5 mph94%29.83 "HgN/A
1:20 AM59 °FLight rain. Partly cloudy.3 mph94%29.83 "Hg5 mi
12:20 AM59 °FPassing clouds.3 mph94%29.83 "HgN/A
11:20 PM
Thu, Jun 30
59 °FPassing clouds.6 mph94%29.83 "HgN/A
10:20 PM63 °FBroken clouds.7 mph88%29.83 "HgN/A
9:20 PM63 °FSprinkles. Broken clouds.7 mph88%29.80 "HgN/A
8:20 PM63 °FBroken clouds.8 mph88%29.80 "HgN/A
7:20 PM63 °FSprinkles. Broken clouds.8 mph94%29.83 "Hg4 mi
6:20 PM63 °FBroken clouds.5 mph88%29.83 "Hg5 mi
5:20 PM64 °FBroken clouds.3 mph83%29.83 "HgN/A
4:20 PM61 °FSprinkles. Broken clouds.12 mph88%29.86 "HgN/A
3:20 PM66 °FBroken clouds.13 mph73%29.83 "HgN/A
2:20 PM68 °FBroken clouds.13 mph64%29.83 "HgN/A
1:20 PM66 °FBroken clouds.14 mph73%29.83 "HgN/A
12:20 PM64 °FBroken clouds.13 mph78%29.83 "HgN/A
Weather by CustomWeather, © 2016

See weather overviewHow to use our weather pages